Location: Leuk
(46.3174°N, 7.6341°E)
Time: 22:50:30
(UTC+00:00)

MOS 1 Rocket - Visible Passes

Search period start: 16 June 2021 00:00
Search period end: 26 June 2021 00:00
Orbit: 614 x 830 km, 97.4° (Epoch: 16 June)

Date Brightness Start Highest point End Pass type
(mag) Time Alt. Az. Time Alt. Az. Time Alt. Az.
18 Jun 6.8 02:15:35 10° ENE 02:16:01 10° ENE 02:16:28 10° NE visible
20 Jun 6.7 02:14:54 10° ENE 02:15:36 10° ENE 02:16:18 10° NE visible
22 Jun 6.7 02:14:16 10° ENE 02:15:10 11° ENE 02:16:05 10° NE visible
24 Jun 6.6 02:13:40 10° ENE 02:14:45 11° ENE 02:15:50 10° NE visible
